Preview of NWS' New Version of Forecast
This preview is not operational and should not be used for support decisions.

Regional Weather Roundup (RWR)

Issued by National Weather Service (NWS)

                            
000
ASUS46 KPQR 191910
RWROR 

OREGON REGIONAL WEATHER ROUNDUP
NATIONAL WEATHER SERVICE PORTLAND OR
1200 PM PDT MON AUG 19 2019

NOTE: "FAIR" INDICATES FEW OR NO CLOUDS BELOW 12,000 FEET WITH
NO SIGNIFICANT WEATHER AND/OR OBSTRUCTIONS TO VISIBILITY.

ORZ001>013-192000-
NORTHWEST OREGON

  
CITY           SKY/WX    TMP DP  RH WIND       PRES   REMARKS
ASTORIA        CLOUDY    66  56  70 N5        30.02S                  
TILLAMOOK      MOSUNNY   72  54  53 NW5       30.02S                  
NEWPORT        CLOUDY    66  55  68 N13       30.04S                  
FLORENCE       FAIR      66  55  68 NW9       30.00F                  
PORTLAND       MOSUNNY   72  53  51 NW5       30.01F                  
VANCOUVER WA   PTSUNNY   71  54  54 SW6       30.01F                  
SCAPPOOSE      CLOUDY    69  54  58 E3        30.00F                  
HILLSBORO      PTSUNNY   69  53  56 CALM      30.01F                  
AURORA         MOSUNNY   72  53  51 N7        30.02F                  
MCMINNVILLE    PTSUNNY   69  54  58 CALM      30.01F                  
SALEM          PTSUNNY   70  53  54 VRB6      30.00F                  
CORVALLIS      CLOUDY    67  56  67 VRB5      30.03S                  
EUGENE         CLOUDY    67  55  65 NE6       30.02S                  
CRESWELL       CLOUDY    66  55  68 VRB5      30.00F                  
$$

ORZ021-028-192000-
SOUTHWEST OREGON

  
CITY           SKY/WX    TMP DP  RH WIND       PRES   REMARKS
NORTH BEND     MOSUNNY   68  58  70 NW10      30.01F                  
BROOKINGS      CLOUDY    58  54  86 SW5       30.00S                  
ROSEBURG       MOSUNNY   68  53  58 VRB3      30.00F                  
SEXTON SUMMIT  SUNNY     71  55  56 CALM      30.05S                  
GRANTS PASS    FAIR      77  54  44 VRB3      29.98F                  
MEDFORD        SUNNY     79  53  40 NW6       29.94F                  
$$

ORZ014>016-041-192000-
COLUMBIA GORGE

  
CITY           SKY/WX    TMP DP  RH WIND       PRES   REMARKS
TROUTDALE      MOSUNNY   73  53  49 VRB6      30.01F                  
HOOD RIVER     SUNNY     73  54  49 W10G21    29.94F                  
THE DALLES     SUNNY     79  53  40 NW17      29.90F                  
$$

ORZ029>031-041-044-049-050-061>064-502-503-505>511-192000-
EASTERN OREGON

  
CITY           SKY/WX    TMP DP  RH WIND       PRES   REMARKS
MADRAS         SUNNY     77  43  29 SE5       30.00S                  
REDMOND        SUNNY     82  39  21 N7        30.00S                  
BEND           SUNNY     79  41  25 CALM      30.00F                  
PRINEVILLE     SUNNY     79  36  21 N8        30.00F                  
KLAMATH FALLS  SUNNY     77  39  25 CALM      30.05F                  
LAKEVIEW       SUNNY     77  33  20 SE9       30.10F                  
HERMISTON      SUNNY     83  52  34 W10       29.89S                  
PENDLETON      SUNNY     82  48  30 W12G18    29.92S                  
JOHN DAY       SUNNY     78  43  27 NW6       30.03S                  
MEACHAM        SUNNY     77  43  29 VRB6      30.03S                  
LA GRANDE      SUNNY     82  43  25 NW12      29.96F                  
BAKER CITY     SUNNY     83  42  23 W7        29.99F                  
BURNS          SUNNY     83  46  27 S10G18    30.04F                  
ROME             N/A     87  33  14 VRB3      30.00F                  
ONTARIO        SUNNY     89  45  21 VRB3      29.91F                  
$$